TimePST,TemperatureF,Dew PointF,Humidity,Sea Level PressureIn,VisibilityMPH,Wind Direction,Wind SpeedMPH,Gust SpeedMPH,PrecipitationIn,Events,Conditions,WindDirDegrees,DateUTC
2:00 AM,49.6,46.9,90,30.19,-9999.0,North,34.5,-,N/A,,Unknown,0,2013-03-02 10:00:00
3:00 AM,50.4,46.8,87,30.17,-9999.0,North,34.5,-,N/A,,Unknown,0,2013-03-02 11:00:00
4:00 AM,50,47,84,30.15,,Calm,Calm,,,,,300,2013-03-02 12:00:00
5:00 AM,49.5,46.8,90,30.14,-9999.0,North,34.5,-,N/A,,Unknown,0,2013-03-02 13:00:00
6:00 AM,50.2,46.4,87,30.12,-9999.0,North,34.5,-,N/A,,Unknown,0,2013-03-02 14:00:00
7:00 AM,50.0,46.2,87,30.10,-9999.0,North,35.7,-,N/A,,Unknown,0,2013-03-02 15:00:00
8:00 AM,50.0,46.2,87,30.08,-9999.0,North,33.4,-,N/A,,Unknown,0,2013-03-02 16:00:00
9:00 AM,49.8,46.2,87,30.06,-9999.0,North,34.5,-,N/A,,Unknown,0,2013-03-02 17:00:00
10:00 AM,46,45,96,30.06,,Calm,Calm,,,,,300,2013-03-02 18:00:00
10:00 AM,46.2,45.3,97,30.06,-9999.0,North,34.5,-,0.02,,Unknown,0,2013-03-02 18:00:00
11:00 AM,44.2,43.3,97,30.05,-9999.0,North,33.4,-,0.08,,Unknown,0,2013-03-02 19:00:00
12:00 PM,43.7,41.7,93,30.06,-9999.0,North,33.4,-,0.09,,Unknown,0,2013-03-02 20:00:00
1:00 PM,43.9,41.4,91,30.08,-9999.0,North,32.2,-,0.05,,Unknown,0,2013-03-02 21:00:00
3:00 PM,43.7,40.3,88,30.10,-9999.0,North,32.2,-,0.03,,Unknown,0,2013-03-02 23:00:00
4:00 PM,43,39,82,30.11,,Calm,Calm,,,,,290,2013-03-03 00:00:00
4:00 PM,43.2,39.4,86,30.11,-9999.0,North,33.4,-,0.04,,Unknown,0,2013-03-03 00:00:00
5:00 PM,43.5,40.8,90,30.11,-9999.0,North,32.2,-,0.05,,Unknown,0,2013-03-03 01:00:00
7:00 PM,43.7,38.5,82,30.14,-9999.0,North,33.4,-,N/A,,Unknown,0,2013-03-03 03:00:00
8:00 PM,44.4,39.2,82,30.14,-9999.0,North,32.2,-,N/A,,Unknown,0,2013-03-03 04:00:00
9:00 PM,41.0,35.8,82,30.17,-9999.0,North,33.4,-,0.03,,Unknown,0,2013-03-03 05:00:00
10:00 PM,42,36,72,30.18,,Calm,Calm,,,,,290,2013-03-03 06:00:00
10:00 PM,41.7,36.1,81,30.18,-9999.0,North,33.4,-,N/A,,Unknown,0,2013-03-03 06:00:00
11:00 PM,40.5,36.1,85,30.18,-9999.0,North,34.5,-,0.02,,Unknown,0,2013-03-03 07:00:00